FW1079 Weather Reports


Display with metric or nautical units.
time (UTC)temp
F
wind
direction
speed
MPH
gust
MPH
rain 1hr
in
rain 24hr
in
rain mn
in
humidity
%
barometer
mb
20260507201429 58 334 0.0 3.0 0.00 0.00 0.00 84 1015.0
20260507200929 58 302 0.0 4.0 0.00 0.00 0.00 84 1015.0
20260507200429 58 322 0.0 4.0 0.00 0.00 0.00 84 1015.0
20260507195932 58 313 2.0 4.0 0.00 0.00 0.00 84 1015.0
20260507195429 58 328 2.0 4.0 0.00 0.00 0.00 84 1015.0
20260507194932 59 322 0.0 4.0 0.00 0.00 0.00 84 1015.0
20260507194429 59 312 0.0 3.0 0.00 0.00 0.00 83 1015.0
20260507193933 59 318 2.0 3.0 0.00 0.00 0.00 83 1015.0
20260507193429 59 321 0.0 0.0 0.00 0.00 0.00 82 1015.0
20260507192930 59 321 0.0 2.0 0.00 0.00 0.00 81 1015.0
20260507192433 59 320 0.0 5.0 0.00 0.00 0.00 81 1015.0
20260507191930 60 325 0.0 4.0 0.00 0.00 0.00 80 1015.0
20260507191429 60 329 0.0 3.0 0.00 0.00 0.00 79 1014.0
20260507190929 60 2 0.0 3.0 0.00 0.00 0.00 78 1014.0
20260507190432 61 15 0.0 3.0 0.00 0.00 0.00 76 1014.0
20260507185930 62 42 0.0 0.0 0.00 0.00 0.00 74 1014.0
20260507185432 62 44 0.0 0.0 0.00 0.00 0.00 73 1014.0
20260507184929 62 46 0.0 0.0 0.00 0.00 0.00 73 1014.0
20260507184433 63 46 0.0 0.0 0.00 0.00 0.00 72 1014.0
20260507183929 63 46 0.0 0.0 0.00 0.00 0.00 72 1014.0
20260507183432 63 46 0.0 0.0 0.00 0.00 0.00 71 1014.0
20260507182929 63 74 0.0 0.0 0.00 0.00 0.00 70 1014.0
20260507182432 63 65 0.0 0.0 0.00 0.00 0.00 69 1014.0
20260507181929 64 60 0.0 0.0 0.00 0.00 0.00 68 1014.0
20260507181429 65 60 0.0 0.0 0.00 0.00 0.00 65 1014.0
20260507180930 65 60 0.0 0.0 0.00 0.00 0.00 64 1014.0
20260507180429 66 60 0.0 0.0 0.00 0.00 0.00 64 1014.0
20260507175929 66 60 0.0 0.0 0.00 0.00 0.00 64 1013.0
20260507175429 66 60 0.0 0.0 0.00 0.00 0.00 63 1013.0
20260507174929 67 60 0.0 0.0 0.00 0.00 0.00 63 1013.0
20260507174429 67 59 0.0 0.0 0.00 0.00 0.00 63 1014.0
20260507173930 67 59 0.0 0.0 0.00 0.00 0.00 62 1014.0
20260507173433 67 59 0.0 0.0 0.00 0.00 0.00 62 1014.0
20260507172930 67 59 0.0 0.0 0.00 0.00 0.00 61 1013.0
20260507172432 67 59 0.0 0.0 0.00 0.00 0.00 61 1013.0
20260507171929 67 56 0.0 0.0 0.00 0.00 0.00 62 1013.0
20260507171429 67 56 0.0 0.0 0.00 0.00 0.00 61 1014.0
20260507170929 67 55 0.0 0.0 0.00 0.00 0.00 61 1014.0
20260507170429 67 55 0.0 0.0 0.00 0.00 0.00 61 1014.0
20260507165929 67 56 0.0 0.0 0.00 0.00 0.00 61 1014.0
20260507165429 67 55 0.0 0.0 0.00 0.00 0.00 61 1014.0
20260507164929 68 40 0.0 0.0 0.00 0.00 0.00 61 1014.0
20260507164430 68 38 0.0 3.0 0.00 0.00 0.00 62 1014.0
20260507163929 68 73 0.0 0.0 0.00 0.00 0.00 62 1014.0
20260507163432 67 81 0.0 0.0 0.00 0.00 0.00 62 1014.0
20260507162932 67 117 0.0 0.0 0.00 0.00 0.00 62 1014.0
20260507162429 67 92 0.0 0.0 0.00 0.00 0.00 61 1014.0
20260507161932 67 110 0.0 4.0 0.00 0.00 0.00 62 1014.0
20260507161432 67 103 0.0 0.0 0.00 0.00 0.00 62 1014.0
20260507160929 68 112 0.0 0.0 0.00 0.00 0.00 62 1014.0
20260507160429 68 110 0.0 0.0 0.00 0.00 0.00 61 1014.0
20260507155933 68 90 0.0 4.0 0.00 0.00 0.00 61 1014.0
20260507155432 68 107 0.0 0.0 0.00 0.00 0.00 61 1014.0
20260507154933 68 85 0.0 6.0 0.00 0.00 0.00 61 1014.0
20260507154432 69 107 3.0 6.0 0.00 0.00 0.00 60 1014.0
20260507153929 69 110 2.0 5.0 0.00 0.00 0.00 60 1014.0
20260507153429 69 87 0.0 8.0 0.00 0.00 0.00 60 1014.0
20260507152929 69 87 0.0 5.0 0.00 0.00 0.00 60 1014.0
20260507152429 69 101 2.0 7.0 0.00 0.00 0.00 59 1014.0
20260507151929 69 82 4.0 8.0 0.00 0.00 0.00 58 1014.0
20260507151429 70 52 4.0 8.0 0.00 0.00 0.00 57 1014.0
20260507150929 71 63 3.0 8.0 0.00 0.00 0.00 57 1014.0
20260507150430 70 56 6.0 8.0 0.00 0.00 0.00 59 1014.0
20260507145929 69 79 7.0 9.0 0.00 0.00 0.00 59 1014.0
20260507145429 69 36 3.0 8.0 0.00 0.00 0.00 59 1014.0
20260507144929 69 48 6.0 8.0 0.00 0.00 0.00 60 1014.0
20260507144429 69 57 4.0 7.0 0.00 0.00 0.00 60 1014.0
20260507143929 69 48 6.0 8.0 0.00 0.00 0.00 59 1014.0
20260507143429 69 103 3.0 8.0 0.00 0.00 0.00 59 1014.0
20260507142928 69 86 3.0 8.0 0.00 0.00 0.00 59 1014.0
20260507142429 70 68 7.0 8.0 0.00 0.00 0.00 59 1014.0
20260507141929 70 89 3.0 8.0 0.00 0.00 0.00 59 1014.0
20260507141431 70 71 5.0 10.0 0.00 0.00 0.00 60 1014.0
20260507140929 70 88 2.0 8.0 0.00 0.00 0.00 61 1014.0
20260507140428 69 65 2.0 8.0 0.00 0.00 0.00 62 1014.0
20260507135929 69 72 0.0 8.0 0.00 0.00 0.00 61 1014.0
20260507135428 69 89 4.0 7.0 0.00 0.00 0.00 61 1014.0
20260507134929 69 72 2.0 8.0 0.00 0.00 0.00 61 1014.0
20260507134429 69 93 0.0 6.0 0.00 0.00 0.00 61 1014.0
20260507133929 70 84 2.0 8.0 0.00 0.00 0.00 60 1014.0
20260507133431 70 78 4.0 8.0 0.00 0.00 0.00 60 1014.0
20260507132928 70 64 7.0 8.0 0.00 0.00 0.00 60 1014.0
20260507132431 71 77 7.0 12.0 0.00 0.00 0.00 60 1014.0
20260507131928 71 91 7.0 10.0 0.00 0.00 0.00 60 1014.0
20260507131431 71 67 5.0 10.0 0.00 0.00 0.00 59 1014.0
20260507130928 71 114 7.0 9.0 0.00 0.00 0.00 58 1014.0
20260507130429 71 97 4.0 10.0 0.00 0.00 0.00 58 1014.0
20260507125929 71 85 8.0 8.0 0.00 0.00 0.00 58 1014.0
20260507125432 71 82 5.0 10.0 0.00 0.00 0.00 57 1014.0
20260507124928 71 47 4.0 10.0 0.00 0.00 0.00 56 1014.0
20260507124428 71 103 6.0 8.0 0.00 0.00 0.00 56 1014.0
20260507123928 71 127 5.0 8.0 0.00 0.00 0.00 55 1014.0
20260507123429 71 90 7.0 10.0 0.00 0.00 0.00 56 1014.0
20260507122928 71 111 4.0 9.0 0.00 0.00 0.00 58 1014.0
20260507122429 71 82 6.0 10.0 0.00 0.00 0.00 58 1014.0
20260507121928 71 78 4.0 8.0 0.00 0.00 0.00 58 1014.0
20260507121428 71 104 5.0 8.0 0.00 0.00 0.00 59 1014.0
20260507120931 71 100 4.0 11.0 0.00 0.00 0.00 60 1014.0
20260507120431 71 115 4.0 9.0 0.00 0.00 0.00 59 1014.0
20260507115928 71 116 7.0 10.0 0.00 0.00 0.00 59 1014.0
20260507115428 71 94 6.0 8.0 0.00 0.00 0.00 57 1014.0
20260507114929 71 97 3.0 10.0 0.00 0.00 0.00 58 1014.0
20260507114428 71 121 7.0 12.0 0.00 0.00 0.00 58 1014.0
20260507113928 71 114 7.0 10.0 0.00 0.00 0.00 59 1014.0
20260507113431 71 89 4.0 10.0 0.00 0.00 0.00 59 1014.0
20260507112928 70 89 6.0 10.0 0.00 0.00 0.00 60 1014.0
20260507112429 70 76 8.0 10.0 0.00 0.00 0.00 60 1014.0
20260507111928 70 116 7.0 10.0 0.00 0.00 0.00 59 1014.0
20260507111429 70 96 3.0 8.0 0.00 0.00 0.00 61 1014.0
20260507110932 70 65 3.0 8.0 0.00 0.00 0.00 63 1014.0
20260507110431 70 110 0.0 8.0 0.00 0.00 0.00 63 1014.0
20260507105929 70 72 0.0 7.0 0.00 0.00 0.00 63 1014.0
20260507105431 70 58 6.0 8.0 0.00 0.00 0.00 63 1014.0
20260507104929 70 50 6.0 9.0 0.00 0.00 0.00 63 1014.0
20260507104428 70 96 6.0 8.0 0.00 0.00 0.00 63 1014.0
20260507103929 70 101 7.0 10.0 0.00 0.00 0.00 62 1014.0
20260507103432 70 88 3.0 8.0 0.00 0.00 0.00 62 1014.0
20260507102928 70 87 6.0 8.0 0.00 0.00 0.00 63 1014.0
20260507102431 70 47 8.0 8.0 0.00 0.00 0.00 63 1014.0
20260507101928 70 108 6.0 8.0 0.00 0.00 0.00 62 1014.0
20260507101428 70 32 4.0 8.0 0.00 0.00 0.00 62 1014.0
20260507100928 70 50 5.0 10.0 0.00 0.00 0.00 61 1014.0
20260507100429 71 89 4.0 11.0 0.00 0.00 0.00 62 1014.0
20260507095931 71 111 2.0 6.0 0.00 0.00 0.00 63 1014.0
20260507095428 71 108 5.0 10.0 0.00 0.00 0.00 63 1014.0
20260507094928 71 76 7.0 10.0 0.00 0.00 0.00 62 1014.0
20260507094428 71 70 5.0 8.0 0.00 0.00 0.00 65 1014.0
20260507093932 71 120 2.0 8.0 0.00 0.00 0.00 65 1014.0
20260507093428 70 127 6.0 9.0 0.00 0.00 0.00 65 1014.0
20260507092928 70 114 2.0 8.0 0.00 0.00 0.00 67 1014.0
20260507092428 69 76 0.0 3.0 0.00 0.00 0.00 68 1014.0
20260507091931 69 64 0.0 7.0 0.00 0.00 0.00 68 1014.0
20260507091431 69 27 2.0 7.0 0.00 0.00 0.00 68 1014.0
20260507090928 69 61 3.0 8.0 0.00 0.00 0.00 68 1014.0
20260507090428 69 120 0.0 5.0 0.00 0.00 0.00 68 1014.0
20260507085928 69 95 0.0 6.0 0.00 0.00 0.00 67 1014.0
20260507085428 70 90 0.0 8.0 0.00 0.00 0.00 67 1014.0
20260507084931 70 70 7.0 8.0 0.00 0.00 0.00 68 1014.0
20260507084428 70 48 2.0 6.0 0.00 0.00 0.00 70 1014.0
20260507083928 69 62 0.0 5.0 0.00 0.00 0.00 70 1014.0
20260507083431 69 89 4.0 5.0 0.00 0.00 0.00 69 1014.0
20260507082928 69 128 0.0 0.0 0.00 0.00 0.00 70 1014.0
20260507082429 69 112 3.0 6.0 0.00 0.00 0.00 69 1014.0
20260507081928 69 115 0.0 5.0 0.00 0.00 0.00 68 1014.0
20260507081431 68 131 0.0 5.0 0.00 0.00 0.00 70 1014.0
20260507080931 68 71 2.0 8.0 0.00 0.00 0.00 72 1014.0
20260507080429 67 111 0.0 0.0 0.00 0.00 0.00 72 1014.0
20260507075928 67 75 0.0 0.0 0.00 0.00 0.00 73 1014.0
20260507075428 67 75 0.0 0.0 0.00 0.00 0.00 75 1014.0
20260507074928 67 100 0.0 3.0 0.00 0.00 0.00 75 1014.0
20260507074428 66 172 0.0 0.0 0.00 0.00 0.00 74 1014.0
20260507073931 66 187 0.0 0.0 0.00 0.00 0.00 73 1014.0
20260507073429 66 187 0.0 0.0 0.00 0.00 0.00 73 1014.0
20260507072928 66 110 0.0 0.0 0.00 0.00 0.00 74 1014.0
20260507072428 66 109 0.0 0.0 0.00 0.00 0.00 77 1014.0
20260507071928 66 97 0.0 0.0 0.00 0.00 0.00 77 1014.0
20260507071428 65 218 0.0 0.0 0.00 0.00 0.00 77 1014.0
20260507070928 65 218 0.0 0.0 0.00 0.00 0.00 77 1014.0
20260507070428 65 218 0.0 0.0 0.00 0.00 0.00 76 1014.0
20260507065928 64 218 0.0 0.0 0.00 0.00 0.00 77 1014.0
20260507065431 64 218 0.0 0.0 0.00 0.00 0.00 78 1014.0
20260507064928 64 218 0.0 0.0 0.00 0.00 0.00 80 1014.0
20260507064428 64 218 0.0 0.0 0.00 0.00 0.00 80 1014.0
20260507063928 63 218 0.0 0.0 0.00 0.00 0.00 81 1014.0
20260507063428 63 216 0.0 0.0 0.00 0.00 0.00 82 1014.0
20260507062928 63 269 0.0 0.0 0.00 0.00 0.00 83 1014.0
20260507062428 62 271 0.0 0.0 0.00 0.00 0.00 83 1014.0
20260507061928 62 269 0.0 0.0 0.00 0.00 0.00 84 1014.0
20260507061428 62 267 2.0 3.0 0.00 0.00 0.00 84 1014.0
20260507060928 61 256 0.0 3.0 0.00 0.00 0.00 85 1014.0
20260507060431 61 265 4.0 5.0 0.00 0.00 0.00 86 1014.0
20260507055928 61 231 0.0 0.0 0.00 0.00 0.00 87 1014.0
20260507055429 61 254 0.0 2.0 0.00 0.00 0.00 87 1014.0
20260507054928 61 261 2.0 4.0 0.00 0.00 0.00 88 1014.0
20260507054428 60 270 0.0 2.0 0.00 0.00 0.00 88 1014.0
20260507053931 60 306 0.0 3.0 0.00 0.00 0.00 88 1014.0
20260507053428 60 310 0.0 3.0 0.00 0.00 0.00 88 1014.0
20260507052928 60 310 0.0 3.0 0.00 0.00 0.00 88 1014.0
20260507052428 60 310 0.0 0.0 0.00 0.00 0.00 88 1014.0
20260507051928 60 310 0.0 0.0 0.00 0.00 0.00 88 1014.0
20260507051431 60 310 0.0 3.0 0.00 0.00 0.00 88 1013.0
20260507050928 59 310 0.0 4.0 0.00 0.00 0.00 88 1013.0
20260507050428 59 308 0.0 3.0 0.00 0.00 0.00 88 1013.0
20260507045931 59 306 0.0 2.0 0.00 0.00 0.00 88 1013.0
20260507045428 59 305 0.0 0.0 0.00 0.00 0.00 88 1013.0
20260507044928 59 305 0.0 0.0 0.00 0.00 0.00 88 1013.0
20260507044431 59 305 0.0 0.0 0.00 0.00 0.00 88 1013.0
20260507043931 59 305 0.0 0.0 0.00 0.00 0.00 88 1013.0
20260507043428 59 310 0.0 4.0 0.00 0.00 0.00 88 1013.0
20260507042929 59 310 0.0 3.0 0.00 0.00 0.00 88 1013.0
20260507042428 59 310 0.0 0.0 0.00 0.00 0.00 88 1013.0
20260507041929 59 310 0.0 0.0 0.00 0.00 0.00 88 1013.0
20260507041428 59 310 0.0 2.0 0.00 0.00 0.00 88 1013.0
20260507040932 59 310 0.0 4.0 0.00 0.00 0.00 88 1013.0
20260507040428 59 307 0.0 2.0 0.00 0.00 0.00 88 1013.0
20260507035928 59 309 0.0 2.0 0.00 0.00 0.00 88 1013.0
20260507035429 59 309 0.0 3.0 0.00 0.00 0.00 88 1013.0
20260507034928 59 309 2.0 3.0 0.00 0.00 0.00 88 1013.0
20260507034428 58 308 0.0 2.0 0.00 0.00 0.00 88 1013.0
20260507033927 58 309 0.0 0.0 0.00 0.00 0.00 88 1013.0
20260507033428 58 309 0.0 0.0 0.00 0.00 0.00 88 1013.0
20260507032928 58 309 0.0 0.0 0.00 0.00 0.00 88 1013.0
20260507032428 58 308 0.0 0.0 0.00 0.00 0.00 88 1013.0
20260507031928 59 308 0.0 0.0 0.00 0.00 0.00 88 1013.0
20260507031431 59 308 0.0 2.0 0.00 0.00 0.00 88 1011.9
20260507030928 59 308 0.0 0.0 0.00 0.00 0.00 88 1011.9
20260507030431 58 308 0.0 0.0 0.00 0.00 0.00 88 1011.9
20260507025927 58 310 0.0 4.0 0.00 0.00 0.00 88 1011.9
20260507025431 58 300 0.0 0.0 0.00 0.00 0.00 88 1011.9
20260507024928 58 300 0.0 0.0 0.00 0.00 0.00 88 1011.9
20260507024428 58 300 0.0 0.0 0.00 0.00 0.00 88 1011.9
20260507023929 58 300 0.0 3.0 0.00 0.00 0.00 88 1011.9
20260507023431 59 298 0.0 3.0 0.00 0.00 0.00 88 1011.9
20260507022928 59 303 0.0 0.0 0.00 0.00 0.00 89 1011.9
20260507022427 59 295 0.0 0.0 0.00 0.00 0.00 89 1011.9
20260507021927 59 295 0.0 0.0 0.00 0.00 0.00 89 1011.9
20260507021428 59 295 0.0 0.0 0.00 0.00 0.00 89 1011.9
20260507020930 59 295 0.0 0.0 0.00 0.00 0.00 88 1011.9
20260507020428 59 295 0.0 0.0 0.00 0.00 0.00 89 1011.9
20260507015928 59 295 0.0 0.0 0.00 0.00 0.00 89 1010.9
20260507015427 59 295 0.0 3.0 0.00 0.00 0.00 89 1010.9
20260507014928 59 305 0.0 3.0 0.00 0.00 0.00 89 1010.9
20260507014428 59 305 0.0 0.0 0.00 0.00 0.00 89 1010.9
20260507013928 59 305 0.0 0.0 0.00 0.00 0.00 89 1010.9
20260507013430 59 303 0.0 0.0 0.00 0.00 0.00 89 1010.9
20260507012927 59 303 0.0 0.0 0.00 0.00 0.00 89 1011.9
20260507012431 59 303 0.0 0.0 0.00 0.00 0.00 89 1011.9
20260507011927 59 312 0.0 4.0 0.00 0.00 0.00 89 1011.9
20260507011427 59 311 0.0 0.0 0.00 0.00 0.00 89 1011.9
20260507010927 59 302 0.0 0.0 0.00 0.00 0.00 88 1011.9
20260507010428 59 300 0.0 0.0 0.00 0.00 0.00 88 1011.9
20260507005927 59 307 0.0 0.0 0.00 0.00 0.00 88 1011.9
20260507005427 59 306 0.0 0.0 0.00 0.00 0.00 88 1011.9
20260507004930 59 306 0.0 0.0 0.00 0.00 0.00 87 1011.9
20260507004427 59 306 0.0 0.0 0.00 0.00 0.00 87 1011.9
20260507003927 59 306 0.0 0.0 0.00 0.00 0.00 87 1011.9
20260507003427 59 306 0.0 0.0 0.00 0.00 0.00 87 1011.9
20260507002928 59 306 0.0 0.0 0.00 0.00 0.00 87 1011.9
20260507002427 59 306 0.0 0.0 0.00 0.00 0.00 87 1011.9
20260507001927 59 306 0.0 0.0 0.00 0.00 0.00 87 1011.9
20260507001427 60 306 0.0 0.0 0.00 0.00 0.00 87 1011.9
20260507000927 60 306 0.0 0.0 0.00 0.00 0.00 87 1011.9
20260507000428 60 306 0.0 0.0 0.00 0.00 0.00 87 1011.9
20260506235930 60 306 0.0 0.0 0.00 0.00 0.00 87 1011.9
20260506235427 60 306 0.0 0.0 0.00 0.00 0.00 88 1011.9
20260506234928 60 307 0.0 0.0 0.00 0.00 0.00 88 1011.9
20260506234428 60 307 0.0 0.0 0.00 0.00 0.00 88 1011.9
20260506233927 60 307 0.0 5.0 0.00 0.00 0.00 88 1011.9
20260506233427 60 300 0.0 0.0 0.00 0.00 0.00 88 1011.9
20260506232927 60 300 0.0 0.0 0.00 0.00 0.00 88 1011.9
20260506232427 60 221 0.0 0.0 0.00 0.00 0.00 88 1011.9
20260506231927 60 219 0.0 3.0 0.00 0.00 0.00 88 1011.9
20260506231427 59 323 0.0 3.0 0.00 0.00 0.00 88 1011.9
20260506230927 59 222 0.0 4.0 0.00 0.00 0.00 88 1011.9
20260506230427 59 290 0.0 4.0 0.00 0.00 0.00 88 1011.9
20260506225927 59 311 3.0 5.0 0.00 0.00 0.00 88 1011.9
20260506225427 59 289 0.0 0.0 0.00 0.00 0.00 88 1011.9
20260506224930 59 289 0.0 2.0 0.00 0.00 0.00 88 1011.9
20260506224427 59 289 0.0 3.0 0.00 0.00 0.00 88 1011.9
20260506223927 59 282 0.0 2.0 0.00 0.00 0.00 88 1011.9
20260506223430 59 292 0.0 6.0 0.00 0.00 0.00 88 1011.9
20260506222927 59 311 0.0 0.0 0.00 0.00 0.00 88 1011.9
20260506222427 59 311 0.0 0.0 0.00 0.00 0.00 88 1011.9
20260506221927 59 311 0.0 4.0 0.00 0.00 0.00 88 1011.9
20260506221427 59 311 0.0 0.0 0.00 0.00 0.00 88 1011.9
20260506220927 59 313 0.0 0.0 0.00 0.00 0.00 87 1011.9
20260506220427 59 313 0.0 2.0 0.00 0.00 0.00 88 1011.9
20260506215927 59 313 0.0 3.0 0.00 0.00 0.00 87 1011.9
20260506215427 59 313 0.0 0.0 0.00 0.00 0.00 87 1011.9
20260506214927 59 312 0.0 0.0 0.00 0.00 0.00 87 1011.9
20260506214427 59 313 0.0 0.0 0.00 0.00 0.00 87 1011.9
20260506213927 59 313 0.0 3.0 0.00 0.00 0.00 87 1011.9
20260506213430 59 292 0.0 4.0 0.00 0.00 0.00 86 1011.9
20260506212928 59 299 0.0 4.0 0.00 0.00 0.00 86 1011.9
20260506212430 59 284 0.0 4.0 0.00 0.00 0.00 85 1011.9
20260506211930 59 327 0.0 0.0 0.00 0.00 0.00 85 1011.9
20260506211427 60 305 0.0 0.0 0.00 0.00 0.00 84 1011.9
20260506210927 60 303 0.0 0.0 0.00 0.00 0.00 84 1011.9
20260506210427 60 303 0.0 0.0 0.00 0.00 0.00 84 1011.9
20260506205927 60 303 0.0 0.0 0.00 0.00 0.00 84 1011.9
20260506205427 60 302 0.0 0.0 0.00 0.00 0.00 84 1011.9
20260506204927 61 301 0.0 0.0 0.00 0.00 0.00 84 1011.9
20260506204428 61 301 0.0 0.0 0.00 0.00 0.00 83 1011.9
20260506203927 61 301 0.0 0.0 0.00 0.00 0.00 83 1011.9
20260506203427 61 301 0.0 0.0 0.00 0.00 0.00 83 1011.9
20260506202927 61 301 0.0 0.0 0.00 0.00 0.00 83 1011.9
20260506202429 61 301 0.0 2.0 0.00 0.00 0.00 83 1011.9
20260506201930 61 319 0.0 4.0 0.00 0.00 0.00 83 1011.9